Location: Asheville, NC
(35.6000°N, 82.5500°W)
Time: 15:00:50
(UTC-05:00)

HO-68 - Pass Details

Date: 05 January 2018
Orbit: 1192 x 1205 km, 100.1° (Epoch: 17 January)

Event Time Altitude Azimuth Distance (km) Brightness Sun altitude
Rises 18:18:17 0° 152° (SSE) 4,091 ? -9.5°
Reaches altitude 10° 18:20:55 10° 149° (SSE) 3,128 ? -10.0°
Maximum altitude 18:27:56 62° 71° (ENE) 1,330 ? -11.4°
Drops below altitude 10° 18:34:59 10° 353° (N) 3,135 ? -12.7°
Sets 18:37:37 0° 350° (N) 4,101 ? -13.2°
